Regional Weather Roundup
Issued by NWS

Home | Current Version | Previous Version | Graphics & Text | Print | Product List | Glossary On
Versions: 1 2 3 4 5 6 7 8 9 10 11 12 13 14 15 16 17 18 19 20 21 22 23 24 25 26 27 28 29 30 31 32 33 34 35 36 37 38 39 40 41 42 43 44 45 46 47 48 49 50
000
ASUS43 KIND 041059
RWRIN

WEATHER ROUNDUP FOR INDIANA
NATIONAL WEATHER SERVICE INDIANAPOLIS IN
700 AM EDT WED MAY 04 2016

NOTE: "FAIR" INDICATES FEW OR NO CLOUDS BELOW 12,000 FEET WITH NO
SIGNIFICANT WEATHER AND/OR OBSTRUCTIONS TO VISIBILITY.

* - STATION DOES NOT REPORT WEATHER SUCH AS PRECIPITATION OR FOG.

+ - STATION NOT QUALITY CONTROLLED BY THE NATIONAL WEATHER SERVICE.
    USE DATA WITH CAUTION...ESPECIALLY DEWPOINT AND RELATIVE
    HUMIDITY OBSERVATIONS.

INZ001>003-010>013-019-020-041200-
NORTHWEST INDIANA

CITY           SKY/WX    TMP DP  RH WIND       PRES   REMARKS
GARY /AIRPORT/ LGT RAIN  48  48 100 N9G28     29.66R
RENSSELAER +   HVY RAIN  50  50 100 W13       29.62R

$$

LMZ046-743>745-041200-
SOUTHERN LAKE MICHIGAN

STATION/POSITION TIME  TEMP    WIND        PRES    WAVE
                       AIR SEA DIR/SP/G            HT
                 (UTC) (F)     (DEG/KT/KT) (MB)    (FT)
BURNS HARBOR     1003   47     360/ 16/ 20 1003.7R
MICHIGAN CITY    1000   45     330/ 22/ 23   N/A

$$

INZ004-005-014>016-021>024-041200-
NORTH CENTRAL INDIANA

CITY           SKY/WX    TMP DP  RH WIND       PRES   REMARKS
ELKHART        RAIN      50  50 100 SW6       29.60
GOSHEN         LGT RAIN  50  47  89 SW5       29.59F
SOUTH BEND     RAIN      47  45  93 N16G22    29.61R

$$

INZ006>009-017-018-025>027-041200-
NORTHEAST INDIANA

CITY           SKY/WX    TMP DP  RH WIND       PRES   REMARKS
ANGOLA *+      CLOUDY    50  46  87 S3        29.60F
FORT WAYNE     CLOUDY    51  45  79 S10       29.63F

$$

INZ028-029-035-036-043>045-051>053-041200-
WEST CENTRAL INDIANA

CITY           SKY/WX    TMP DP  RH WIND       PRES   REMARKS
CRAWFORDSVL +  RAIN      47  47 100 SW10      29.67F
GREENCASTLE +  RAIN      48  46  93 W7G16     29.72R
LAFAYETTE      LGT RAIN  50  48  93 SW9       29.63F FOG
TERRE HAUTE    LGT RAIN  51  47  86 W8        29.73R FOG

$$

INZ030>032-037>040-046>048-054>057-064-065-041200-
CENTRAL INDIANA

CITY           SKY/WX    TMP DP  RH WIND       PRES   REMARKS
COLUMBUS       PTCLDY    48  46  93 SW7       29.71
INDIANAPOLIS   LGT RAIN  52  43  71 SW12      29.67F
-EAGLE CREEK   LGT RAIN  53  43  68 SW8       29.67S
KOKOMO *+      CLOUDY    52  43  71 W15G24    29.63F
SHELBYVILLE    CLOUDY    52  45  77 S9        29.68F

$$

INZ033-034-041-042-049-050-058-059-041200-
EAST CENTRAL INDIANA

CITY           SKY/WX    TMP DP  RH WIND       PRES   REMARKS
MUNCIE         CLOUDY    52  44  74 SW10      29.65F

$$

INZ060-061-067>069-081>083-085>088-041200-
SOUTHWEST INDIANA

CITY           SKY/WX    TMP DP  RH WIND       PRES   REMARKS
EVANSVILLE     PTCLDY    48  44  86 SW6       29.77F
HUNTINGBURG *+ PTCLDY    48  43  81 SW8       29.76F

$$

INZ062-063-066-070>080-084-089>092-041200-
SOUTH CENTRAL AND SOUTHEAST INDIANA

CITY           SKY/WX    TMP DP  RH WIND       PRES   REMARKS
BLOOMINGTON    CLOUDY    52  42  69 SW8       29.71F
MADISON *+     CLEAR     46  43  87 S6        29.76F
SEYMOUR +      PTCLDY    52  43  71 SW9       29.72F

$$




USA.gov is the U.S. government's official web portal to all federal, state and local government web resources and services.